Overview Statistics Trail Chart Weather Telemetry Raw packets
 

This is the latest recevied weather packets stored in our database for station/object N7IGG. If no packets are shown the sender has not sent any weather packets the latest 10 day(s).

<< 37 38 39 40 41 42 43 >>
Time Temp. Humidity Pressure Rain* Wind** Luminosity Snow
1777923387 18.89° C 73% 1011 hPa 0 mm - 595 W/m² -
1777923086 18.33° C 73% 1011 hPa 0 mm - 579 W/m² -
1777922783 18.33° C 73% 1011.1 hPa 0 mm - 538 W/m² -
1777922481 18.89° C 73% 1011.1 hPa 0 mm - 515 W/m² -
1777922180 17.78° C 74% 1011.1 hPa 0 mm - 505 W/m² -
1777921875 18.33° C 73% 1011.2 hPa 0 mm - 614 W/m² -
1777921572 18.33° C 72% 1011.2 hPa 0 mm - 637 W/m² -
1777921268 17.78° C 77% 1011.3 hPa 0 mm - 579 W/m² -
1777920965 16.11° C 79% 1011.3 hPa 0 mm - 551 W/m² -
1777920661 16.11° C 80% 1011.2 hPa 0 mm - 552 W/m² -
1777920357 15.56° C 80% 1011.2 hPa 0 mm - 587 W/m² -
1777920052 15.56° C 80% 1011.4 hPa 0 mm - 436 W/m² -
1777919750 16.11° C 79% 1011.3 hPa 0 mm - 623 W/m² -
1777919448 16.11° C 79% 1011.1 hPa 0 mm - 636 W/m² -
1777919144 15.56° C 79% 1011.2 hPa 0 mm - 640 W/m² -
1777918842 16.11° C 78% 1011.2 hPa 0 mm - 632 W/m² -
1777918539 16.11° C 77% 1011.3 hPa 0 mm - 585 W/m² -
1777918237 16.67° C 76% 1011.5 hPa 0 mm - 128 W/m² -
1777917936 16.67° C 76% 1011.4 hPa 0 mm - 499 W/m² -
1777917634 16.67° C 78% 1011.4 hPa 0 mm - 131 W/m² -
1777917331 16.67° C 79% 1011.3 hPa 0 mm - 72 W/m² -
1777917032 16.11° C 80% 1011.5 hPa 0 mm - 67 W/m² -
1777916726 15.56° C 80% 1011.4 hPa 0 mm - 61 W/m² -
1777916422 15.56° C 82% 1011.4 hPa 0 mm - 60 W/m² -
1777916119 15.56° C 82% 1011.4 hPa 0 mm - 72 W/m² -

* Rain latest hour (hover to see other rain measurements)
** Current wind speed in m/s (hover to see current wind gust speed)